[[{"header":{"parameterUnit":"m.s-1","parameterCategory":1,"la1":30.2991,"la2":30.254,"lo1":-89.0895,"lo2":-89.0444,"dy":0.0017,"dx":0.0017,"nx":28,"ny":28,"refTime":"2023-07-29T09:00:00:Z","depth":0,"parameterNumber":2,"parameterNumberName":"U-component_of_WINDS"},"data":[0,0,0,0,0,0,0,0,0,0,0,0,0,0,0,0,0,0,0,0,0,0,0,0,0,0,0,0,0,0,0,0,0,0,0,0,0,0,0,0,0,0,0,0,0,0,0,0,0,0,0,0,0,0,0,0,0,0,1.0538,1.0539,0,1.059,1.0591,1.0591,1.0573,1.0572,1.0571,1.0569,1.0621,1.0624,1.0626,0,0,0,0,0,0,0,0,0,0,0,0,0,1.042,1.0423,1.0538,1.0539,1.054,1.059,1.0591,1.0591,1.0573,1.0572,1.057,1.0569,1.062,1.0623,1.0626,0,0,0,0,0,0,0,0,0,0,0,0,0,1.0472,1.0423,1.0538,1.0536,1.0537,1.059,1.0591,1.0592,1.0573,1.0572,1.057,1.0568,1.0619,1.0623,1.0627,1.0684,0,0,1.0638,1.0639,0,0,0,0,0,0,0,0,1.0469,1.0476,1.0536,1.0537,1.0537,1.0573,1.0568,1.0622,1.0574,1.0559,1.0569,1.0567,1.0607,1.0611,1.0625,1.0686,1.0688,1.0638,1.064,1.0642,1.0643,0,0,0,0,0,0,0,1.0465,1.0474,1.0559,1.0537,1.0538,1.0532,1.0538,1.0578,1.0592,1.0561,1.0559,1.0566,1.0606,1.0621,1.0626,1.0689,1.0638,1.0641,1.0644,1.0645,1.0797,1.0799,0,0,0,0,0,0,1.0462,1.0471,1.0557,1.056,1.0498,1.0536,1.0542,1.0563,1.0592,1.0594,1.0567,1.0565,1.0616,1.0621,1.0627,1.0694,1.0642,1.0645,1.0647,1.0796,1.0798,1.08,0,0,0,0,0,0,1.0459,1.047,1.0555,1.0515,1.0526,1.054,1.0564,1.0565,1.058,1.0597,1.0599,1.058,1.0615,1.0622,1.0669,1.0696,1.0647,1.065,1.0793,1.0796,1.0799,1.0829,0,0,0,0,0,0,1.0456,1.0469,1.0492,1.0516,1.0528,1.0597,1.0566,1.0568,1.0586,1.0584,1.0609,1.0611,1.0614,1.0664,1.0673,1.07,1.0653,1.0791,1.0795,1.0798,1.0826,1.0832,1.0838,0,0,0,0,0,1.0452,1.0498,1.0493,1.0503,1.0557,1.0598,1.0605,1.0607,1.0589,1.0611,1.0621,1.0611,1.0692,1.0669,1.0679,1.0707,1.0789,1.0794,1.0798,1.0823,1.0831,1.0838,0,0,0,0,0,0,1.0476,1.0501,1.0496,1.0552,1.0573,1.0595,1.0623,1.0616,1.0643,1.064,1.0641,1.0647,1.0694,1.0706,1.068,1.0763,1.0738,1.0744,1.0753,1.0761,1.0767,1.0763,1.0656,0,0,0,0,0,1.0488,1.0521,1.0541,1.0588,1.0599,1.061,1.0628,1.0628,1.065,1.0659,1.0672,1.0694,1.0724,1.0743,1.0772,1.0828,1.0832,1.0852,1.0858,1.0863,1.0868,1.0896,1.0904,1.0813,1.0813,1.0813,0,0,1.0513,1.0531,1.0551,1.0593,1.061,1.0642,1.0617,1.0653,1.0677,1.0664,1.0708,1.072,1.0743,1.0794,1.0817,1.0805,1.0894,1.0869,1.0872,1.0874,1.0901,1.0909,1.0917,1.0816,1.0816,1.0815,0,0,1.0574,1.0592,1.0632,1.0649,1.0675,1.0681,1.0691,1.0714,1.072,1.0766,1.0756,1.0784,1.0836,1.0852,1.0868,1.0934,1.0924,1.0943,1.0975,1.1002,1.1009,1.1016,1.1037,1.1044,1.0949,1.0949,1.0949,0,1.0602,1.0651,1.0653,1.069,1.0707,1.0698,1.0737,1.0753,1.0787,1.0798,1.0785,1.0849,1.0864,1.0917,1.0933,1.0947,1.0956,1.094,1.1008,1.1015,1.102,1.104,1.1049,1.0951,1.095,1.095,1.095,0,1.0682,1.0716,1.0745,1.0777,1.0798,1.0836,1.0843,1.0864,1.0862,1.0869,1.0914,1.0932,1.0963,1.0977,1.0975,1.1029,1.102,1.1008,1.0982,1.1031,1.105,1.1058,1.0953,1.0953,1.0952,1.0952,0,0,1.0759,1.0792,1.0802,1.0815,1.0842,1.0868,1.0905,1.0935,1.0952,1.0976,1.1005,1.1049,1.1036,1.1054,1.1054,1.1078,1.1126,1.1062,1.1062,1.1071,1.1183,1.1191,1.12,1.112,1.1122,1.1123,1.118,0,1.082,1.0885,1.0887,1.0945,1.0975,1.0966,1.0998,1.1017,1.1025,1.1051,1.1059,1.1089,1.1072,1.1082,1.1106,1.1115,1.1148,1.1111,1.1146,1.1147,1.1137,1.121,1.1219,1.1272,1.1188,1.1189,1.119,0,1.09,1.0925,1.0986,1.1007,1.102,1.1048,1.1075,1.1101,1.1122,1.1126,1.1144,1.1141,1.1177,1.1151,1.1199,1.1174,1.1189,1.1195,1.1197,1.1199,1.117,1.1211,1.129,1.1297,1.1202,1.1201,1.1201,0,1.0947,1.0996,1.1038,1.1051,1.1077,1.1096,1.1108,1.1127,1.1145,1.1169,1.1179,1.1207,1.1222,1.1243,1.1246,1.1228,1.1294,1.1269,1.1296,1.1296,1.1309,1.1307,1.1388,1.1322,1.1322,1.1322,1.1322,0,1.1013,1.105,1.1059,1.1085,1.1126,1.1128,1.1168,1.1178,1.1195,1.1222,1.1216,1.1241,1.1245,1.1271,1.1274,1.1312,1.1319,1.1322,1.1322,1.1321,1.132,1.1329,1.1324,1.1324,1.1323,1.1323,1.1323,0,1.1072,1.108,1.1124,1.1145,1.1151,1.118,1.1197,1.1221,1.1228,1.1261,1.1269,1.128,1.131,1.1316,1.1351,1.1353,1.1397,1.1395,1.139,1.1389,1.1414,1.1411,1.1501,1.1512,1.1442,1.1442,1.1443,0,1.1112,1.114,1.1164,1.1181,1.1194,1.1222,1.124,1.1243,1.1262,1.1287,1.1307,1.1336,1.1359,1.1407,1.1417,1.1443,1.144,1.147,1.1444,1.1441,1.1437,1.1434,1.1436,1.1474,1.1475,1.1475,1.1476,0,1.1183,1.1185,1.1211,1.1238,1.1259,1.128,1.1301,1.1315,1.1321,1.1342,1.1372,1.139,1.1425,1.1453,1.1479,1.149,1.1483,1.1484,1.1491,1.149,1.1485,1.1485,1.1401,1.1482,1.1481,1.1481,1.148,1.148,1.1232,1.1255,1.1275,1.1304,1.1319,1.1338,1.1361,1.137,1.1396,1.1424,1.1425,1.1457,1.1476,1.151,1.1523,1.1547,1.1538,1.1549,1.1551,1.1553,1.1554,1.1483,1.1552,1.1552,1.1552,1.1552,1.1552,0,1.13,1.1312,1.1338,1.1366,1.1388,1.1381,1.1403,1.1421,1.1449,1.1468,1.149,1.1524,1.1551,1.1563,1.1589,1.1606,1.1604,1.1613,1.161,1.1613,1.1563,1.1553,1.1614,1.1614,1.1614,1.1614,1.1614,1.1614,1.1337,1.1376,1.138,1.1426,1.1438,1.1469,1.1482,1.1499,1.1513,1.1551,1.1573,1.1581,1.1596,1.1624,1.1647,1.165,1.1659,1.1669,1.167,1.1623,1.1616,1.161,1.1601,1.1672,1.1672,1.1718,1.1718,1.1719]},{"header":{"parameterUnit":"m.s-1","parameterCategory":1,"la1":30.2991,"la2":30.254,"lo1":-89.0895,"lo2":-89.0444,"dy":0.0017,"dx":0.0017,"nx":28,"ny":28,"refTime":"2023-07-29T09:00:00:Z","depth":0,"parameterNumber":3,"parameterNumberName":"V-component_of_WINDS"},"data":[0,0,0,0,0,0,0,0,0,0,0,0,0,0,0,0,0,0,0,0,0,0,0,0,0,0,0,0,0,0,0,0,0,0,0,0,0,0,0,0,0,0,0,0,0,0,0,0,0,0,0,0,0,0,0,0,0,0,2.0998,2.0997,0,2.0985,2.0985,2.0985,2.0914,2.0912,2.091,2.0909,2.0896,2.0897,2.0898,0,0,0,0,0,0,0,0,0,0,0,0,0,2.0959,2.0961,2.0998,2.0997,2.0997,2.0985,2.0985,2.0985,2.0914,2.0912,2.091,2.0908,2.0895,2.0897,2.0898,0,0,0,0,0,0,0,0,0,0,0,0,0,2.0964,2.0961,2.0998,2.0961,2.0957,2.0985,2.0985,2.0984,2.0915,2.0912,2.0909,2.0907,2.0895,2.0897,2.0898,2.0961,0,0,2.0904,2.0905,0,0,0,0,0,0,0,0,2.0964,2.0966,2.0966,2.0963,2.0959,2.0948,2.0966,2.0976,2.0915,2.0931,2.0909,2.0906,2.0915,2.0915,2.0918,2.096,2.0959,2.0904,2.0905,2.0906,2.0907,0,0,0,0,0,0,0,2.0964,2.0966,2.0993,2.0966,2.0962,2.0944,2.0942,2.0968,2.0937,2.0929,2.0924,2.0923,2.0913,2.0917,2.0918,2.0959,2.0904,2.0906,2.0907,2.0908,2.1048,2.1051,0,0,0,0,0,0,2.0969,2.0966,2.0993,2.0992,2.0956,2.0947,2.0945,2.0954,2.0937,2.0932,2.0926,2.092,2.0915,2.0916,2.0917,2.0986,2.0906,2.0908,2.0909,2.1046,2.1049,2.1052,0,0,0,0,0,0,2.0968,2.0972,2.0993,2.0978,2.0979,2.095,2.0962,2.0956,2.0959,2.0934,2.0928,2.0935,2.0913,2.0914,2.095,2.0985,2.0909,2.091,2.1043,2.1047,2.105,2.1128,0,0,0,0,0,0,2.0968,2.0972,2.0996,2.0979,2.098,2.1027,2.0964,2.0957,2.0963,2.0956,2.0942,2.0937,2.0911,2.0947,2.0951,2.0986,2.0912,2.1039,2.1045,2.1049,2.1122,2.1134,2.1144,0,0,0,0,0,2.0966,2.1019,2.0998,2.1001,2.101,2.1029,2.103,2.0999,2.0966,2.0989,2.0973,2.0938,2.0981,2.0952,2.0956,2.0992,2.1037,2.1043,2.1049,2.1117,2.1132,2.1144,0,0,0,0,0,0,2.1042,2.1016,2.0992,2.1041,2.1038,2.1017,2.1046,2.1016,2.1022,2.1015,2.0977,2.0974,2.1015,2.1007,2.0975,2.1049,2.1003,2.101,2.1053,2.1067,2.1078,2.1078,2.0913,0,0,0,0,0,2.1064,2.1083,2.1059,2.1104,2.1104,2.1075,2.1083,2.1059,2.1054,2.1053,2.1039,2.1036,2.1048,2.1057,2.1068,2.1121,2.1116,2.1147,2.1158,2.1168,2.1174,2.1199,2.1212,2.1071,2.1071,2.1071,0,0,2.111,2.1098,2.1113,2.1119,2.1114,2.1133,2.1075,2.1098,2.1112,2.1056,2.1088,2.1078,2.1072,2.1116,2.1134,2.111,2.1212,2.1175,2.1183,2.1184,2.1207,2.122,2.1232,2.1075,2.1075,2.1074,0,0,2.1203,2.1198,2.1233,2.1229,2.1221,2.1202,2.121,2.1194,2.1185,2.1217,2.1175,2.119,2.1213,2.1209,2.1211,2.1301,2.1268,2.1306,2.1363,2.1388,2.1399,2.1409,2.1439,2.1451,2.1312,2.1312,2.1312,0,2.1262,2.1289,2.1255,2.1281,2.1284,2.1234,2.1269,2.1266,2.1263,2.1266,2.1239,2.1266,2.1258,2.1299,2.1321,2.1324,2.1332,2.1306,2.1401,2.141,2.1418,2.1447,2.1459,2.1317,2.1316,2.1316,2.1315,0,2.136,2.138,2.1409,2.1406,2.1413,2.1443,2.1413,2.1424,2.1399,2.1382,2.1414,2.1403,2.1409,2.1417,2.1394,2.1455,2.144,2.1408,2.1359,2.1437,2.1463,2.1474,2.1323,2.1321,2.132,2.1319,0,0,2.1501,2.1477,2.1489,2.1486,2.1473,2.1487,2.1515,2.152,2.1529,2.1529,2.1549,2.1569,2.1539,2.154,2.1516,2.1538,2.1608,2.1503,2.1502,2.1521,2.1672,2.1695,2.1708,2.1586,2.1588,2.159,2.1672,0,2.1589,2.1634,2.1603,2.1653,2.167,2.1622,2.1645,2.164,2.1625,2.1636,2.1619,2.1633,2.1592,2.1593,2.1613,2.1595,2.1637,2.1589,2.1604,2.1605,2.1606,2.1722,2.1747,2.1825,2.1682,2.1684,2.1685,0,2.1698,2.17,2.1752,2.1733,2.1739,2.1761,2.1762,2.1774,2.1767,2.1754,2.1755,2.1724,2.1748,2.1702,2.1734,2.1702,2.1707,2.1699,2.1701,2.17,2.1649,2.1723,2.1849,2.1861,2.1701,2.17,2.1699,0,2.1793,2.1809,2.1841,2.1841,2.1821,2.1837,2.183,2.1819,2.1824,2.1825,2.1827,2.1832,2.1834,2.1838,2.1809,2.1779,2.1845,2.1796,2.1834,2.1834,2.1849,2.1848,2.1976,2.1855,2.1854,2.1854,2.1854,0,2.1893,2.1926,2.1884,2.1903,2.1938,2.1902,2.1937,2.1925,2.1916,2.1931,2.1891,2.1907,2.1868,2.188,2.1857,2.1886,2.1888,2.1877,2.1871,2.188,2.1881,2.1882,2.1875,2.1857,2.1857,2.1856,2.1855,0,2.2005,2.1978,2.201,2.1988,2.1983,2.201,2.1991,2.2007,2.1989,2.2009,2.2012,2.1983,2.1994,2.1966,2.1973,2.1958,2.1999,2.1985,2.2002,2.1997,2.2035,2.2031,2.2166,2.2182,2.2052,2.2053,2.2054,0,2.2071,2.2094,2.2075,2.2082,2.2076,2.2089,2.2093,2.2058,2.2064,2.2056,2.2073,2.2081,2.2085,2.2105,2.2084,2.2089,2.2073,2.2121,2.2074,2.2082,2.2072,2.207,2.2072,2.213,2.2132,2.2133,2.2134,0,2.2188,2.2173,2.2181,2.2183,2.2189,2.2189,2.2186,2.2195,2.2157,2.2166,2.2176,2.2179,2.2186,2.2193,2.2193,2.2185,2.2153,2.2149,2.2157,2.2166,2.2175,2.2169,2.2026,2.2146,2.2144,2.2144,2.2143,2.2142,2.2278,2.2296,2.2284,2.2293,2.2287,2.2285,2.2299,2.2282,2.229,2.2292,2.2271,2.2285,2.2275,2.2272,2.2266,2.2277,2.2255,2.2268,2.2271,2.2275,2.228,2.2174,2.2277,2.2277,2.2276,2.2276,2.2276,0,2.2392,2.2381,2.239,2.2387,2.2393,2.2362,2.2357,2.2365,2.2378,2.2371,2.2376,2.2387,2.2394,2.2373,2.2377,2.2389,2.2374,2.2391,2.2389,2.2387,2.23,2.2291,2.2403,2.2403,2.2403,2.2402,2.2402,2.2402,2.2452,2.248,2.2463,2.2488,2.2477,2.249,2.249,2.2487,2.2481,2.2495,2.2501,2.2487,2.2474,2.2476,2.2481,2.2474,2.2477,2.2498,2.2487,2.2406,2.2394,2.2382,2.2373,2.25,2.25,2.2573,2.2574,2.2574]}]]